Wind_Speed
2 2 2 3 4 4 5 5 6 7 9 10 11 11 11 12 13 14 13 14 14 13 13 13 13 13 13 12 12 12 12 11 11 10 9 9 8 8 7 7 7 7 6
2 3 3 4 5 4 5 7 7 7 9 10 11 11 11 11 13 14 14 14 14 14 14 14 14 13 13 12 12 11 11 11 10 10 9 8 8 7 7 7 7 7 7
4 5 5 5 5 6 6 7 7 8 8 10 10 10 11 12 13 13 14 14 14 14 14 13 13 12 12 12 11 11 10 10 9 9 8 7 7 7 6 6 6 6 6
5 6 6 6 6 6 6 7 7 7 9 10 10 11 12 13 13 13 14 14 15 15 14 13 12 12 12 11 10 10 9 9 8 8 7 6 6 6 6 6 5 5 5
5 6 6 6 6 6 6 7 7 7 8 9 10 11 12 13 13 13 14 14 14 14 13 12 11 11 11 10 9 9 8 8 7 7 6 6 6 6 6 5 5 5 5
6 7 7 6 6 6 7 7 7 7 8 9 10 11 12 13 13 13 13 13 13 13 12 11 11 10 10 9 8 8 8 7 7 6 6 6 5 5 5 5 5 4 4
7 7 7 7 6 6 6 7 7 7 8 8 10 11 11 12 13 12 12 12 12 11 10 10 10 10 8 8 7 7 6 6 6 6 5 5 5 4 4 4 3 3 3
7 7 7 7 6 6 6 6 6 7 7 8 9 8 10 11 11 12 12 11 11 10 9 9 9 8 8 7 7 6 5 5 5 4 4 4 4 3 3 3 2 2 2
7 7 7 7 6 6 6 6 6 6 7 8 8 8 10 10 11 11 11 10 10 9 9 9 9 8 7 6 5 4 4 4 4 3 3 3 3 3 2 2 2 1 1
8 8 7 7 6 6 6 6 6 6 7 7 7 8 9 9 10 10 10 9 9 10 9 9 8 7 6 5 4 3 3 3 3 2 2 3 3 2 2 2 2 2 2
7 7 7 7 7 6 6 6 6 6 6 7 7 8 8 9 9 9 8 8 9 8 8 7 7 6 5 4 3 2 2 2 2 2 1 2 2 2 2 2 3 3 3
7 7 7 7 6 6 6 6 6 6 6 6 7 8 7 8 8 8 7 6 7 7 6 6 5 4 4 3 2 1 1 1 2 1 1 2 2 3 3 3 4 4 4
7 7 8 7 8 6 6 6 6 6 5 6 7 7 7 8 7 7 6 6 6 5 5 4 3 3 2 1 1 1 1 1 1 2 2 3 3 4 4 5 5 5 5
8 8 7 7 8 8 7 6 6 6 7 7 6 6 7 7 7 5 5 5 5 4 3 3 3 2 1 1 0 1 2 2 2 3 4 5 5 5 5 6 6 6 6
8 8 8 7 7 7 7 6 6 7 7 6 5 5 5 4 5 4 4 3 3 2 1 1 1 0 0 1 1 2 3 3 3 4 4 5 6 6 7 7 7 8 8
9 8 8 8 8 8 7 8 7 7 7 6 5 4 3 3 3 3 2 2 1 1 1 1 0 1 2 2 3 3 4 4 3 5 5 6 6 7 7 8 8 9 9
9 9 9 9 8 8 8 7 7 6 6 5 5 4 3 2 2 2 2 2 1 1 1 1 1 2 2 3 4 4 4 5 5 6 6 7 7 8 9 9 9 10 11
11 10 9 9 9 8 8 8 8 7 7 6 5 4 3 3 2 2 1 1 1 2 2 2 2 2 3 4 5 5 6 7 7 8 8 8 8 9 10 10 10 10 11
11 11 10 10 10 9 8 8 7 7 7 6 6 5 4 3 2 2 2 2 2 2 2 2 3 4 4 5 6 6 7 8 8 9 9 9 10 10 10 11 11 11 11
10 10 10 10 10 10 9 9 8 7 7 6 6 6 5 4 4 3 3 3 3 3 3 4 4 5 5 6 7 7 8 9 9 9 10 10 10 10 11 11 12 12 12
11 10 10 10 10 10 10 10 9 8 8 7 6 6 5 5 5 4 3 3 4 4 4 5 5 5 6 7 8 8 8 9 10 10 11 11 11 11 11 12 12 13 13
11 11 11 10 10 10 10 10 9 9 8 7 7 5 5 5 4 4 3 3 4 5 5 5 6 7 7 8 8 9 9 10 10 11 12 12 13 13 13 13 13 13 14
9 9 10 9 10 10 9 9 9 10 8 7 6 5 5 5 5 5 4 4 5 6 6 6 7 8 8 8 9 9 9 10 10 12 12 13 13 14 14 14 14 14 14
7 7 8 8 8 9 9 9 9 9 9 8 7 7 6 5 5 6 6 6 6 7 7 7 8 8 9 9 10 10 11 11 12 12 13 13 14 14 14 14 15 15 15
5 6 6 7 7 7 8 8 9 9 9 8 8 7 7 6 6 7 7 7 7 7 8 8 8 9 9 10 11 11 12 12 13 13 14 14 14 15 15 16 16 15 15
4 4 5 5 6 6 7 8 8 9 9 9 8 8 8 7 7 8 8 8 8 8 8 9 9 9 10 11 11 12 13 14 14 14 15 15 15 15 16 16 16 16 16
Wind_Direction
82 96 112 127 115 104 101 91 86 84 90 102 106 108 111 113 112 116 115 117 119 122 122 123 119 120 121 120 119 118 117 115 112 109 105 100 96 95 96 97 95 90 88
80 99 105 113 116 110 110 98 93 93 96 101 108 110 112 115 116 119 118 120 121 122 122 122 121 119 120 119 118 117 116 114 111 105 102 101 99 98 100 96 94 93 88
89 90 102 102 104 107 107 101 100 98 100 102 108 110 115 118 118 120 119 122 122 122 122 121 121 120 118 118 118 117 113 109 107 104 102 102 101 99 100 98 96 93 83
92 92 95 99 99 99 104 104 104 103 106 106 110 115 118 116 117 120 121 123 124 125 123 120 120 118 116 117 115 115 113 108 105 103 98 95 99 102 100 97 95 89 85
94 90 90 92 98 102 104 103 101 106 108 106 112 115 116 117 118 120 121 124 124 123 123 121 119 118 116 115 112 111 110 110 108 102 98 97 97 97 95 90 90 91 84
86 85 88 90 99 107 108 106 105 108 112 113 116 117 117 118 119 119 121 125 125 124 124 122 123 125 122 117 114 113 109 106 103 100 97 96 96 92 86 84 83 82 78
81 84 90 95 101 109 109 108 109 106 110 112 119 117 118 118 119 119 121 122 124 126 127 126 127 127 123 119 114 113 107 102 98 98 97 95 93 90 90 88 82 76 73
85 86 90 94 97 104 108 109 108 111 112 119 118 116 120 120 120 120 122 121 122 124 128 131 131 128 126 121 116 114 107 100 97 101 97 94 89 80 83 83 82 76 67
82 84 87 92 95 97 102 108 105 110 116 118 116 114 118 118 121 122 123 121 120 123 127 129 129 127 124 120 117 116 112 105 95 97 88 88 82 73 70 61 48 32 12
77 78 83 89 90 93 104 110 111 112 116 117 117 120 121 122 125 124 123 121 120 121 120 122 120 123 123 121 116 114 110 97 84 82 74 82 73 63 53 30 7 354 332
76 74 76 80 83 86 97 105 113 119 124 123 121 122 123 126 127 123 119 117 117 116 116 118 116 111 114 117 118 113 104 92 78 62 44 54 43 34 12 352 339 330 315
73 72 72 77 81 85 90 101 114 123 129 130 124 122 125 130 131 127 122 118 119 121 122 120 121 121 114 114 114 95 85 70 55 33 2 347 343 340 332 328 316 308 306
70 69 71 72 76 84 91 99 107 118 117 128 127 123 128 132 129 127 125 119 121 125 126 124 127 124 124 127 87 58 36 13 350 342 320 316 318 322 321 318 312 305 302
66 64 67 69 72 78 86 94 109 114 117 118 119 121 126 125 121 120 118 118 119 122 123 121 120 114 133 166 338 331 340 335 298 307 307 314 317 315 316 315 312 307 303
63 64 68 70 71 79 87 94 107 110 111 112 112 121 126 124 119 121 123 112 111 124 135 118 134 112 14 313 313 325 325 332 313 305 313 320 322 315 310 305 305 303 304
62 64 67 72 72 77 87 88 90 101 100 106 110 116 119 124 121 110 103 89 89 108 114 107 187 345 345 329 318 318 311 308 306 305 314 312 315 316 311 306 306 306 303
63 65 67 70 74 74 78 80 75 82 84 93 95 97 100 117 125 111 101 84 66 30 13 357 334 339 342 332 325 322 312 307 305 308 310 312 312 309 308 306 302 303 303
65 66 67 68 68 68 65 65 66 72 70 75 80 83 86 90 111 112 91 59 31 11 3 347 344 334 331 325 321 315 309 311 309 305 308 310 309 308 306 307 304 302 304
65 65 65 63 62 61 59 58 61 63 64 68 72 73 74 74 77 61 30 28 15 10 2 349 341 334 330 327 322 314 309 310 310 307 307 307 307 308 305 304 304 305 304
60 61 62 60 58 58 57 57 55 54 60 63 62 59 56 54 51 49 34 18 6 358 352 350 342 335 329 325 322 319 315 310 310 309 308 306 306 306 308 307 304 305 305
56 56 59 61 60 59 56 54 52 51 52 55 60 57 55 52 50 38 17 11 3 354 348 345 337 337 333 326 322 321 316 312 313 310 310 306 306 305 306 305 304 302 301
56 57 58 59 58 55 53 52 49 48 50 54 55 51 47 37 34 25 14 3 356 355 347 339 333 331 328 327 327 325 322 321 318 315 313 311 308 308 308 304 302 300 298
52 55 56 56 54 51 50 49 47 45 44 44 42 36 32 33 32 19 8 2 354 348 340 331 329 327 325 324 326 326 324 324 321 317 313 310 308 308 307 304 304 303 298
42 48 49 48 48 47 46 42 40 39 36 34 31 24 18 13 10 1 353 350 345 340 334 330 331 329 327 323 324 324 321 320 320 317 313 310 308 307 307 305 304 303 298
23 30 34 35 35 36 36 34 33 30 25 22 19 14 8 5 1 354 343 338 333 331 329 329 330 328 325 323 322 320 320 321 318 317 316 315 311 309 307 305 304 304 303
355 4 16 18 21 21 20 19 17 16 15 13 9 6 1 356 354 354 349 338 333 331 328 325 325 325 325 324 323 320 318 318 320 319 317 316 313 309 307 305 304 302 304
Height
5861 5860 5860 5860 5860 5860 5860 5859 5857 5854 5852 5851 5852 5854 5856 5857 5858 5859 5861 5863 5864 5866 5868 5870 5871 5872 5874 5875 5876 5877 5878 5880 5881 5882 5883 5883 5884 5884 5885 5885 5886 5886 5887
5861 5861 5861 5861 5861 5861 5861 5860 5859 5858 5857 5856 5857 5858 5859 5860 5861 5862 5863 5865 5867 5868 5870 5872 5873 5874 5876 5877 5878 5879 5880 5881 5882 5883 5884 5885 5886 5886 5886 5886 5887 5888 5888
5862 5862 5862 5862 5862 5862 5862 5862 5862 5861 5860 5860 5860 5861 5862 5863 5864 5865 5866 5867 5869 5871 5873 5874 5875 5877 5878 5879 5880 5881 5882 5883 5884 5885 5886 5887 5887 5887 5888 5888 5889 5889 5889
5863 5863 5863 5863 5863 5864 5864 5864 5864 5863 5863 5863 5863 5864 5864 5865 5866 5867 5869 5870 5872 5873 5875 5877 5878 5879 5880 5881 5882 5883 5884 5885 5885 5886 5887 5888 5889 5889 5889 5890 5890 5891 5891
5864 5864 5864 5865 5865 5865 5866 5866 5866 5866 5865 5866 5866 5866 5867 5868 5869 5870 5871 5873 5874 5876 5877 5879 5880 5881 5882 5883 5884 5885 5886 5886 5887 5887 5888 5889 5890 5890 5890 5891 5891 5891 5892
5866 5866 5866 5866 5867 5867 5868 5868 5868 5868 5868 5868 5868 5869 5869 5870 5872 5873 5874 5876 5877 5878 5880 5881 5882 5883 5884 5885 5886 5886 5887 5888 5888 5889 5890 5890 5891 5891 5891 5892 5892 5892 5892
5867 5867 5868 5868 5868 5869 5869 5870 5870 5870 5870 5870 5871 5871 5872 5873 5874 5875 5877 5878 5879 5880 5881 5882 5883 5884 5885 5886 5887 5888 5889 5889 5890 5890 5890 5891 5892 5892 5892 5892 5892 5893 5893
5869 5869 5869 5870 5870 5870 5870 5871 5871 5872 5872 5872 5873 5874 5874 5875 5876 5877 5879 5880 5881 5882 5883 5884 5885 5886 5887 5887 5888 5889 5890 5890 5891 5891 5891 5892 5892 5892 5892 5893 5893 5893 5893
5871 5871 5871 5871 5871 5872 5872 5872 5873 5873 5874 5874 5875 5876 5877 5878 5878 5879 5880 5882 5883 5884 5885 5886 5886 5887 5888 5889 5890 5890 5891 5891 5892 5893 5893 5893 5893 5893 5893 5893 5893 5893 5893
5873 5873 5873 5873 5873 5873 5873 5874 5874 5875 5876 5876 5877 5878 5879 5880 5881 5882 5882 5883 5884 5885 5886 5887 5888 5889 5889 5890 5891 5891 5892 5893 5893 5893 5893 5893 5893 5893 5893 5893 5893 5894 5894
5875 5875 5875 5875 5875 5875 5874 5875 5876 5877 5877 5878 5879 5880 5881 5882 5883 5884 5884 5885 5886 5887 5888 5889 5890 5890 5891 5891 5892 5892 5893 5893 5894 5894 5893 5893 5894 5894 5894 5894 5894 5894 5894
5877 5877 5877 5877 5877 5876 5876 5877 5877 5878 5879 5879 5880 5881 5882 5883 5884 5885 5886 5887 5888 5889 5889 5890 5891 5891 5892 5892 5893 5893 5893 5894 5894 5894 5894 5894 5894 5894 5894 5894 5893 5893 5893
5880 5879 5879 5878 5878 5878 5878 5879 5879 5880 5880 5881 5882 5883 5884 5885 5886 5886 5887 5888 5889 5889 5890 5891 5892 5892 5892 5893 5893 5894 5894 5894 5895 5894 5893 5894 5894 5894 5893 5893 5893 5893 5893
5882 5882 5881 5881 5880 5880 5880 5881 5881 5881 5882 5883 5883 5884 5886 5887 5887 5888 5889 5889 5890 5891 5891 5892 5893 5893 5893 5894 5894 5894 5894 5894 5894 5894 5893 5894 5893 5893 5893 5893 5892 5892 5892
5884 5884 5883 5883 5882 5882 5882 5882 5883 5883 5884 5884 5885 5886 5887 5888 5889 5889 5890 5891 5892 5892 5892 5893 5893 5893 5894 5894 5894 5894 5894 5894 5894 5894 5893 5893 5893 5892 5892 5892 5891 5891 5890
5886 5886 5885 5885 5884 5884 5884 5884 5884 5885 5885 5886 5887 5888 5888 5889 5890 5891 5891 5892 5892 5892 5893 5893 5894 5894 5894 5894 5894 5894 5894 5894 5893 5893 5892 5892 5892 5891 5891 5891 5890 5890 5889
5889 5888 5888 5887 5887 5887 5887 5887 5887 5887 5887 5888 5888 5889 5890 5890 5891 5891 5892 5892 5892 5893 5893 5893 5894 5894 5894 5894 5894 5893 5893 5893 5892 5892 5892 5891 5891 5890 5890 5889 5889 5888 5887
5892 5891 5890 5890 5890 5889 5889 5889 5889 5889 5889 5890 5890 5890 5891 5891 5891 5892 5892 5893 5893 5893 5893 5893 5893 5894 5894 5894 5893 5893 5893 5892 5891 5891 5891 5890 5889 5889 5888 5887 5887 5886 5885
5894 5894 5893 5893 5893 5892 5892 5892 5892 5891 5891 5891 5891 5891 5892 5892 5892 5892 5893 5893 5893 5893 5893 5893 5893 5893 5893 5893 5893 5892 5892 5891 5890 5890 5889 5888 5887 5887 5886 5885 5885 5884 5883
5897 5897 5896 5896 5895 5895 5895 5894 5894 5894 5893 5893 5893 5893 5892 5893 5893 5893 5893 5893 5893 5893 5893 5893 5893 5893 5893 5892 5892 5891 5891 5890 5889 5888 5887 5886 5885 5885 5884 5883 5883 5882 5881
5900 5899 5899 5898 5898 5898 5897 5897 5896 5896 5895 5895 5894 5894 5893 5894 5894 5894 5894 5894 5894 5894 5893 5893 5893 5892 5892 5891 5891 5890 5889 5888 5888 5887 5886 5885 5883 5882 5882 5881 5880 5879 5878
5902 5901 5901 5901 5900 5900 5899 5898 5898 5897 5897 5896 5896 5896 5895 5895 5895 5895 5894 5894 5894 5894 5893 5893 5892 5892 5891 5890 5890 5889 5888 5888 5886 5885 5884 5883 5882 5880 5880 5879 5877 5876 5875
5904 5904 5903 5903 5902 5901 5901 5901 5900 5899 5899 5898 5898 5897 5896 5896 5896 5895 5895 5894 5894 5894 5893 5892 5892 5891 5890 5890 5889 5888 5887 5886 5885 5883 5882 5881 5879 5878 5877 5876 5875 5874 5872
5906 5906 5905 5905 5904 5903 5903 5902 5902 5901 5900 5900 5899 5898 5897 5897 5896 5895 5895 5894 5894 5893 5893 5892 5891 5890 5889 5888 5887 5886 5885 5884 5883 5881 5880 5878 5877 5876 5875 5873 5872 5870 5869
5907 5907 5906 5906 5905 5905 5904 5904 5903 5902 5902 5901 5900 5899 5898 5897 5896 5895 5895 5894 5893 5893 5892 5891 5890 5889 5888 5887 5886 5885 5883 5882 5880 5879 5878 5876 5875 5873 5872 5870 5869 5867 5866
5908 5907 5907 5907 5906 5906 5905 5905 5904 5903 5902 5901 5900 5899 5898 5897 5896 5895 5894 5893 5893 5892 5891 5890 5889 5888 5887 5886 5884 5883 5882 5880 5878 5877 5875 5873 5872 5870 5869 5867 5865 5864 5862